388  
AXUS43 KGID 210002  
MISGRI  
 
GID CWA HOURLY WEATHER ROUNDUP  
NATIONAL WEATHER SERVICE HASTINGS NE  
600 PM CST THU FEB 20 2020  
 
NOTE: "FAIR" INDICATES FEW OR NO CLOUDS BELOW 12,000 FEET WITH NO  
SIGNIFICANT WEATHER AND/OR OBSTRUCTIONS TO VISIBILITY.  
   
..SOUTH CENTRAL NEBRASKA
 
 
 
CITY SKY/WX TMP DP RH WIND PRES REMARKS  
GRAND ISLAND FAIR 29 19 66 SW8 30.62F WCI 21  
KEARNEY FAIR 30 19 63 SW12 30.61F WCI 20  
HASTINGS FAIR 30 17 58 SW7 30.63F WCI 23  
ORD FAIR 30 17 58 SW9 30.56F WCI 22  
AURORA FAIR 29 22 73 SW3 30.63F  
LEXINGTON FAIR 32 20 60 S9 30.58F WCI 24  
HOLDREGE FAIR 31 19 59 SW7 30.60F WCI 25  
HEBRON FAIR 31 14 50 W3 30.68F  
   
..NEBRASKA PANHANDLE
 
 
 
CITY SKY/WX TMP DP RH WIND PRES REMARKS  
CHADRON FAIR 29 17 61 SW6 30.38F WCI 23  
ALLIANCE FAIR 36 14 40 SW10 30.39F WCI 28  
SCOTTSBLUFF FAIR 40 10 29 W6 30.39F  
SIDNEY FAIR 33 10 38 SW14 30.42F WCI 23  
   
..WESTERN AND NORTH CENTRAL NEBRASKA
 
 
 
CITY SKY/WX TMP DP RH WIND PRES REMARKS  
VALENTINE FAIR 38 18 44 S15G22 30.43F WCI 29  
AINSWORTH FAIR 32 22 67 SW13 30.47F WCI 22  
ONEILL FAIR 29 18 62 SW9 30.53S WCI 20  
BROKEN BOW FAIR 28 17 63 S8 30.54F WCI 20  
IMPERIAL FAIR 35 13 40 S8 30.50F WCI 29  
NORTH PLATTE FAIR 35 18 49 SW10 30.52F WCI 27  
MCCOOK FAIR 32 20 61 S10 30.57F WCI 24  
   
..EASTERN NEBRASKA
 
 
 
CITY SKY/WX TMP DP RH WIND PRES REMARKS  
NORFOLK FAIR 26 17 68 S7 30.60F WCI 18  
SO SIOUX CITY FAIR 21 13 71 S6 30.64F WCI 13  
TEKAMAH FAIR 27 18 69 S9 30.67F WCI 18  
COLUMBUS FAIR 27 19 72 S9 30.65F WCI 18  
ALBION FAIR 30 21 68 S5 30.59F WCI 26  
OMAHA EPPLEY FAIR 28 11 48 SW6 30.69F WCI 22  
OFFUTT AFB FAIR 26 11 51 SW5 30.70S WCI 21  
MILLARD FAIR 30 13 49 W5 30.69F WCI 25  
LINCOLN FAIR 27 15 61 SW7 30.70F WCI 19  
NEBRASKA CITY FAIR 26 13 57 SW5 30.71S WCI 21  
BEATRICE FAIR 29 16 57 W3 30.69F  
FALLS CITY N/A 26 8 46 W3 30.72S  
   
..NORTHERN KANSAS
 
 
 
CITY SKY/WX TMP DP RH WIND PRES REMARKS  
GOODLAND FAIR 28 20 71 S13 30.53F WCI 17  
HILL CITY FAIR 29 19 66 SW9 30.65F WCI 20  
PHILLIPSBURG CLEAR 30 16 55 CALM 30.66F  
OBERLIN FAIR 30 22 73 S10 30.63F WCI 21  
SMITH CENTER CLEAR 28 19 69 S6 30.68F WCI 22  
HAYS FAIR 28 15 58 S6 30.68F WCI 22  
RUSSELL FAIR 26 16 65 SW5 30.68F WCI 20  
CONCORDIA FAIR 29 14 53 SW8 30.70F WCI 21  
SALINA FAIR 29 15 56 N5 30.72F WCI 24  
TOPEKA FAIR 29 6 38 NE6 30.73S WCI 23  
 
CLICK HERE TO GO TO PREVIOUS BULLETINS.

The Nexlab NE Page
The Nexlab KS Page Main Text Page